When you browse on this site, cookies collect data to enhance your experience and personalize the content and advertising you see.
Visit our Privacy Policy to learn more. By continuing to use the site, you agree to this use of cookies and data.
EN

Hourly Weather Hurghada

Today, 14 July, Tuesday

Time Temperature Precipitation Wind Pressure Humidity
00:00 +25°C° 0 mm 2 mps 677 mmHg 28%
01:00 +24°C° 0 mm 2 mps 676 mmHg 31%
02:00 +24°C° 0 mm 2 mps 676 mmHg 34%
03:00 +23°C° 0 mm 2 mps 677 mmHg 36%
04:00 +23°C° 0 mm 1 mps 677 mmHg 38%
05:00 +22°C° 0 mm 1 mps 677 mmHg 40%
06:00 +25°C° 0 mm 2 mps 678 mmHg 33%
07:00 +27°C° 0 mm 2 mps 679 mmHg 26%
08:00 +30°C° 0 mm 2 mps 679 mmHg 19%
09:00 +33°C° 0 mm 3 mps 680 mmHg 17%
10:00 +34°C° 0 mm 3 mps 680 mmHg 16%
11:00 +35°C° 0 mm 4 mps 681 mmHg 14%
12:00 +36°C° 0 mm 4 mps 680 mmHg 14%
13:00 +36°C° 0 mm 4 mps 680 mmHg 15%
14:00 +37°C° 0 mm 4 mps 680 mmHg 15%
15:00 +36°C° 0 mm 4 mps 680 mmHg 16%
16:00 +35°C° 0 mm 3 mps 679 mmHg 16%
17:00 +35°C° 0 mm 3 mps 679 mmHg 17%
18:00 +31°C° 0 mm 2 mps 679 mmHg 21%
19:00 +29°C° 0 mm 1 mps 679 mmHg 25%
20:00 +26°C° 0 mm 1 mps 678 mmHg 29%
21:00 +26°C° 0 mm 1 mps 678 mmHg 29%
22:00 +25°C° 0 mm 1 mps 679 mmHg 30%
23:00 +25°C° 0 mm 1 mps 679 mmHg 30%

Tomorrow, 15 July, Wednesday

Time Temperature Precipitation Wind Pressure Humidity
00:00 +24°C° 0 mm 1 mps 679 mmHg 29%
01:00 +23°C° 0 mm 1 mps 678 mmHg 28%
02:00 +21°C° 0 mm 0 mps 678 mmHg 26%
03:00 +23°C° 0 mm 1 mps 678 mmHg 28%
04:00 +22°C° 0 mm 1 mps 679 mmHg 29%
05:00 +22°C° 0 mm 1 mps 679 mmHg 30%
06:00 +25°C° 0 mm 1 mps 680 mmHg 27%
07:00 +28°C° 0 mm 1 mps 681 mmHg 24%
08:00 +31°C° 0 mm 2 mps 682 mmHg 20%
09:00 +34°C° 0 mm 2 mps 682 mmHg 18%
10:00 +35°C° 0 mm 3 mps 682 mmHg 16%
11:00 +37°C° 0 mm 3 mps 682 mmHg 14%
12:00 +38°C° 0 mm 4 mps 682 mmHg 14%
13:00 +39°C° 0 mm 5 mps 682 mmHg 13%
14:00 +40°C° 0 mm 6 mps 681 mmHg 13%
15:00 +39°C° 0 mm 5 mps 681 mmHg 13%
16:00 +39°C° 0 mm 5 mps 681 mmHg 14%
17:00 +37°C° 0 mm 5 mps 680 mmHg 14%
18:00 +35°C° 0 mm 4 mps 680 mmHg 16%
19:00 +33°C° 0 mm 3 mps 680 mmHg 18%
20:00 +30°C° 0 mm 3 mps 680 mmHg 19%
21:00 +29°C° 0 mm 3 mps 680 mmHg 19%
22:00 +29°C° 0 mm 3 mps 680 mmHg 19%
23:00 +29°C° 0 mm 3 mps 680 mmHg 18%

Day after tomorrow, 16 July, Thursday

Time Temperature Precipitation Wind Pressure Humidity
00:00 +28°C° 0 mm 3 mps 679 mmHg 21%
01:00 +27°C° 0 mm 3 mps 679 mmHg 23%
02:00 +26°C° 0 mm 2 mps 679 mmHg 26%
03:00 +26°C° 0 mm 2 mps 678 mmHg 28%
04:00 +25°C° 0 mm 2 mps 678 mmHg 30%
05:00 +25°C° 0 mm 2 mps 678 mmHg 32%
06:00 +28°C° 0 mm 3 mps 679 mmHg 27%
07:00 +30°C° 0 mm 3 mps 680 mmHg 22%
08:00 +34°C° 0 mm 4 mps 680 mmHg 17%
09:00 +35°C° 0 mm 4 mps 680 mmHg 16%
10:00 +36°C° 0 mm 4 mps 680 mmHg 15%
11:00 +39°C° 0 mm 5 mps 680 mmHg 14%
12:00 +39°C° 0 mm 5 mps 680 mmHg 13%
13:00 +40°C° 0 mm 6 mps 680 mmHg 13%
14:00 +40°C° 0 mm 7 mps 679 mmHg 12%
15:00 +40°C° 0 mm 7 mps 679 mmHg 13%
16:00 +39°C° 0 mm 7 mps 679 mmHg 14%
17:00 +39°C° 0 mm 7 mps 678 mmHg 14%
18:00 +35°C° 0 mm 5 mps 678 mmHg 18%
19:00 +33°C° 0 mm 4 mps 678 mmHg 21%
20:00 +29°C° 0 mm 3 mps 677 mmHg 25%
21:00 +29°C° 0 mm 3 mps 677 mmHg 26%
22:00 +28°C° 0 mm 3 mps 677 mmHg 27%
23:00 +27°C° 0 mm 3 mps 677 mmHg 28%

17 July, Friday

Time Temperature Precipitation Wind Pressure Humidity
00:00 +26°C° 0 mm 3 mps 677 mmHg 33%
01:00 +25°C° 0 mm 3 mps 677 mmHg 38%
02:00 +25°C° 0 mm 3 mps 677 mmHg 44%
03:00 +24°C° 0 mm 3 mps 676 mmHg 44%
04:00 +24°C° 0 mm 3 mps 676 mmHg 45%
05:00 +24°C° 0 mm 2 mps 676 mmHg 46%
06:00 +26°C° 0 mm 3 mps 677 mmHg 39%
07:00 +28°C° 0 mm 3 mps 678 mmHg 32%
08:00 +30°C° 0 mm 3 mps 678 mmHg 25%
09:00 +33°C° 0 mm 4 mps 679 mmHg 22%
10:00 +34°C° 0 mm 4 mps 679 mmHg 20%
11:00 +36°C° 0 mm 4 mps 679 mmHg 17%
12:00 +36°C° 0 mm 4 mps 679 mmHg 17%
13:00 +37°C° 0 mm 5 mps 679 mmHg 16%
14:00 +39°C° 0 mm 5 mps 678 mmHg 15%
15:00 +37°C° 0 mm 5 mps 678 mmHg 16%
16:00 +36°C° 0 mm 5 mps 678 mmHg 16%
17:00 +36°C° 0 mm 5 mps 678 mmHg 16%
18:00 +34°C° 0 mm 4 mps 677 mmHg 18%
19:00 +30°C° 0 mm 3 mps 677 mmHg 19%
20:00 +28°C° 0 mm 2 mps 677 mmHg 21%
21:00 +28°C° 0 mm 2 mps 677 mmHg 21%
22:00 +27°C° 0 mm 2 mps 677 mmHg 21%
23:00 +26°C° 0 mm 2 mps 677 mmHg 21%

18 July, Saturday

Time Temperature Precipitation Wind Pressure Humidity
00:00 +26°C° 0 mm 2 mps 677 mmHg 26%
01:00 +25°C° 0 mm 2 mps 677 mmHg 31%
02:00 +25°C° 0 mm 3 mps 677 mmHg 35%
03:00 +24°C° 0 mm 2 mps 677 mmHg 41%
04:00 +23°C° 0 mm 2 mps 677 mmHg 47%
05:00 +23°C° 0 mm 2 mps 677 mmHg 53%
06:00 +25°C° 0 mm 2 mps 678 mmHg 46%
07:00 +27°C° 0 mm 3 mps 678 mmHg 39%
08:00 +29°C° 0 mm 3 mps 679 mmHg 32%
09:00 +30°C° 0 mm 3 mps 679 mmHg 29%
10:00 +33°C° 0 mm 3 mps 679 mmHg 26%
11:00 +34°C° 0 mm 3 mps 680 mmHg 23%
12:00 +35°C° 0 mm 3 mps 679 mmHg 22%
13:00 +36°C° 0 mm 4 mps 679 mmHg 22%
14:00 +36°C° 0 mm 4 mps 679 mmHg 21%
15:00 +36°C° 0 mm 4 mps 679 mmHg 22%
16:00 +35°C° 0 mm 4 mps 679 mmHg 23%
17:00 +34°C° 0 mm 3 mps 678 mmHg 24%
18:00 +31°C° 0 mm 2 mps 678 mmHg 28%
19:00 +29°C° 0 mm 2 mps 678 mmHg 32%
20:00 +27°C° 0 mm 1 mps 678 mmHg 36%
21:00 +26°C° 0 mm 1 mps 678 mmHg 36%
22:00 +26°C° 0 mm 1 mps 678 mmHg 36%
23:00 +25°C° 0 mm 1 mps 678 mmHg 36%

19 July, Sunday

Time Temperature Precipitation Wind Pressure Humidity
00:00 +25°C° 0 mm 1 mps 678 mmHg 37%
01:00 +25°C° 0 mm 1 mps 678 mmHg 38%
02:00 +24°C° 0 mm 1 mps 678 mmHg 39%
03:00 +24°C° 0 mm 1 mps 678 mmHg 40%
04:00 +23°C° 0 mm 1 mps 678 mmHg 42%
05:00 +22°C° 0 mm 1 mps 678 mmHg 44%
06:00 +25°C° 0 mm 1 mps 678 mmHg 40%
07:00 +27°C° 0 mm 1 mps 679 mmHg 35%
08:00 +29°C° 0 mm 2 mps 680 mmHg 31%
09:00 +31°C° 0 mm 2 mps 680 mmHg 28%
10:00 +34°C° 0 mm 2 mps 680 mmHg 25%
11:00 +36°C° 0 mm 3 mps 680 mmHg 22%
12:00 +36°C° 0 mm 3 mps 680 mmHg 22%
13:00 +37°C° 0 mm 3 mps 680 mmHg 21%
14:00 +37°C° 0 mm 4 mps 680 mmHg 21%
15:00 +37°C° 0 mm 4 mps 680 mmHg 20%
16:00 +36°C° 0 mm 3 mps 679 mmHg 20%
17:00 +36°C° 0 mm 3 mps 679 mmHg 19%
18:00 +34°C° 0 mm 2 mps 679 mmHg 22%
19:00 +31°C° 0 mm 2 mps 679 mmHg 26%
20:00 +28°C° 0 mm 1 mps 679 mmHg 29%
21:00 +28°C° 0 mm 1 mps 679 mmHg 28%
22:00 +28°C° 0 mm 2 mps 679 mmHg 28%
23:00 +27°C° 0 mm 2 mps 679 mmHg 27%
Show more